Torna al catalogo

COSMOS 1275 DEB

AttivoPO
NORAD 12660·DEBRIS·🇷🇺 Russia

Lanciato Jun 4, 1981 da Plesetsk Cosmodrome

Loading…

Prossimi Passaggi (prossime 24 ore)

TLE

AggiornatoSource: Space-Track

Epoca: Sep 14, 2026, 09:27 UTC

1 12660U 81053Q   26257.39376001  .00000620  00000-0  69514-3 0  9999
2 12660  82.8513  35.0310 0132249 270.8108 115.3553 13.66074196234222

Traccia COSMOS 1275 DEB in tempo reale con AllMySat

Download on the App Store